| time (UTC) | temp F | wind direction | speed MPH | gust MPH | rain 1hr in | rain 24hr in | rain mn in | humidity % | barometer mb |
| 20260504060143 | 51 | 267 | 0.0 | 0.0 | 0.00 | 0.00 | 0.00 | 78 | 1023.2 |
| 20260504050612 | 52 | 267 | 0.0 | 0.0 | 0.00 | 0.00 | 0.00 | 75 | 1023.8 |
| 20260504050109 | 52 | 268 | 0.0 | 0.0 | 0.00 | 0.00 | 0.00 | 76 | 1023.7 |
| 20260504045606 | 52 | 268 | 0.0 | 0.0 | 0.00 | 0.00 | 0.00 | 76 | 1023.7 |
| 20260504045100 | 52 | 268 | 0.0 | 0.0 | 0.00 | 0.00 | 0.00 | 76 | 1023.8 |
| 20260504044559 | 52 | 268 | 0.0 | 0.0 | 0.00 | 0.00 | 0.00 | 76 | 1023.9 |
| 20260504044055 | 53 | 268 | 0.0 | 0.0 | 0.00 | 0.00 | 0.00 | 75 | 1024.1 |
| 20260504043553 | 53 | 268 | 0.0 | 0.0 | 0.00 | 0.00 | 0.00 | 74 | 1023.9 |
| 20260504043049 | 53 | 268 | 0.0 | 0.0 | 0.00 | 0.00 | 0.00 | 74 | 1024.0 |
| 20260504042547 | 53 | 268 | 0.0 | 0.0 | 0.00 | 0.00 | 0.00 | 73 | 1023.8 |
| 20260504042043 | 53 | 268 | 0.0 | 0.0 | 0.00 | 0.00 | 0.00 | 73 | 1023.9 |
| 20260504041539 | 54 | 268 | 0.0 | 0.0 | 0.00 | 0.00 | 0.00 | 72 | 1024.0 |
| 20260504041035 | 54 | 268 | 0.0 | 0.0 | 0.00 | 0.00 | 0.00 | 71 | 1023.7 |
| 20260504040533 | 54 | 268 | 0.0 | 0.0 | 0.00 | 0.00 | 0.00 | 71 | 1023.5 |
| 20260504040030 | 54 | 268 | 0.0 | 0.0 | 0.00 | 0.00 | 0.00 | 71 | 1023.8 |
| 20260504035527 | 54 | 269 | 0.0 | 0.0 | 0.00 | 0.00 | 0.00 | 71 | 1023.9 |
| 20260504035023 | 54 | 269 | 0.0 | 0.0 | 0.00 | 0.00 | 0.00 | 70 | 1024.0 |
| 20260504034521 | 54 | 269 | 0.0 | 0.0 | 0.00 | 0.00 | 0.00 | 68 | 1023.9 |
| 20260504034017 | 55 | 269 | 0.0 | 0.0 | 0.00 | 0.00 | 0.00 | 69 | 1023.7 |
| 20260504033515 | 55 | 269 | 0.0 | 0.0 | 0.00 | 0.00 | 0.00 | 68 | 1023.9 |
| 20260504033013 | 55 | 269 | 0.0 | 0.0 | 0.00 | 0.00 | 0.00 | 67 | 1024.1 |
| 20260504032509 | 56 | 269 | 0.0 | 0.0 | 0.00 | 0.00 | 0.00 | 67 | 1023.9 |
| 20260504032006 | 56 | 269 | 0.0 | 0.0 | 0.00 | 0.00 | 0.00 | 66 | 1023.9 |
| 20260504031503 | 56 | 269 | 0.0 | 0.0 | 0.00 | 0.00 | 0.00 | 66 | 1024.1 |
| 20260504030959 | 56 | 269 | 0.0 | 0.0 | 0.00 | 0.00 | 0.00 | 64 | 1023.7 |
| 20260504030457 | 56 | 269 | 0.0 | 0.0 | 0.00 | 0.00 | 0.00 | 64 | 1023.9 |
| 20260504025952 | 56 | 269 | 0.0 | 0.0 | 0.00 | 0.00 | 0.00 | 64 | 1023.7 |
| 20260504025450 | 56 | 269 | 0.0 | 0.0 | 0.00 | 0.00 | 0.00 | 63 | 1023.8 |
| 20260504024946 | 57 | 269 | 0.0 | 0.0 | 0.00 | 0.00 | 0.00 | 65 | 1023.9 |
| 20260504024443 | 57 | 269 | 0.0 | 0.0 | 0.00 | 0.00 | 0.00 | 64 | 1023.9 |
| 20260504023940 | 57 | 269 | 0.0 | 0.0 | 0.00 | 0.00 | 0.00 | 63 | 1023.8 |
| 20260504023437 | 57 | 269 | 0.0 | 0.0 | 0.00 | 0.00 | 0.00 | 62 | 1023.8 |
| 20260504022932 | 57 | 269 | 0.0 | 0.0 | 0.00 | 0.00 | 0.00 | 61 | 1023.8 |
| 20260504022429 | 58 | 269 | 0.0 | 0.0 | 0.00 | 0.00 | 0.00 | 61 | 1023.6 |
| 20260504021926 | 58 | 269 | 0.0 | 0.0 | 0.00 | 0.00 | 0.00 | 61 | 1023.7 |
| 20260504021423 | 58 | 269 | 0.0 | 0.0 | 0.00 | 0.00 | 0.00 | 61 | 1023.3 |
| 20260504020920 | 59 | 269 | 0.0 | 0.0 | 0.00 | 0.00 | 0.00 | 59 | 1023.5 |
| 20260504020417 | 59 | 269 | 0.0 | 0.0 | 0.00 | 0.00 | 0.00 | 57 | 1023.4 |
| 20260504015914 | 59 | 269 | 0.0 | 0.0 | 0.00 | 0.00 | 0.00 | 58 | 1023.1 |
| 20260504015409 | 59 | 269 | 0.0 | 0.0 | 0.00 | 0.00 | 0.00 | 56 | 1023.1 |
| 20260504014906 | 59 | 269 | 0.0 | 0.0 | 0.00 | 0.00 | 0.00 | 55 | 1023.0 |
| 20260504014402 | 59 | 269 | 0.0 | 0.0 | 0.00 | 0.00 | 0.00 | 56 | 1023.3 |
| 20260504013859 | 59 | 269 | 0.0 | 0.0 | 0.00 | 0.00 | 0.00 | 55 | 1022.7 |
| 20260504013357 | 60 | 269 | 0.0 | 0.0 | 0.00 | 0.00 | 0.00 | 55 | 1022.7 |
| 20260504012853 | 60 | 269 | 0.0 | 0.0 | 0.00 | 0.00 | 0.00 | 55 | 1022.6 |
| 20260504012351 | 60 | 269 | 0.0 | 0.0 | 0.00 | 0.00 | 0.00 | 54 | 1022.6 |
| 20260504011849 | 60 | 269 | 0.0 | 0.0 | 0.00 | 0.00 | 0.00 | 53 | 1022.7 |
| 20260504011345 | 60 | 269 | 0.0 | 0.0 | 0.00 | 0.00 | 0.00 | 54 | 1022.7 |
| 20260504010841 | 60 | 269 | 0.0 | 0.0 | 0.00 | 0.00 | 0.00 | 52 | 1022.5 |
| 20260504010336 | 61 | 269 | 0.0 | 0.0 | 0.00 | 0.00 | 0.00 | 52 | 1022.3 |
| 20260504005833 | 61 | 268 | 0.0 | 0.0 | 0.00 | 0.00 | 0.00 | 49 | 1022.3 |
| 20260504005330 | 62 | 268 | 0.0 | 0.0 | 0.00 | 0.00 | 0.00 | 46 | 1022.2 |
| 20260504004828 | 62 | 268 | 0.0 | 0.0 | 0.00 | 0.00 | 0.00 | 45 | 1022.4 |
| 20260504004325 | 62 | 269 | 0.0 | 0.0 | 0.00 | 0.00 | 0.00 | 44 | 1022.3 |
| 20260504003821 | 63 | 269 | 0.0 | 0.0 | 0.00 | 0.00 | 0.00 | 43 | 1022.0 |
| 20260504003319 | 63 | 269 | 0.0 | 0.0 | 0.00 | 0.00 | 0.00 | 43 | 1022.1 |
| 20260504002815 | 63 | 269 | 0.0 | 0.0 | 0.00 | 0.00 | 0.00 | 42 | 1022.2 |
| 20260504002312 | 64 | 269 | 0.0 | 0.0 | 0.00 | 0.00 | 0.00 | 41 | 1022.2 |
| 20260504001810 | 64 | 268 | 0.0 | 0.0 | 0.00 | 0.00 | 0.00 | 41 | 1022.1 |
| 20260504001307 | 64 | 268 | 0.0 | 0.0 | 0.00 | 0.00 | 0.00 | 42 | 1022.2 |
| 20260504000804 | 65 | 268 | 0.0 | 0.0 | 0.00 | 0.00 | 0.00 | 41 | 1022.0 |
| 20260504000301 | 65 | 268 | 0.0 | 0.0 | 0.00 | 0.00 | 0.00 | 41 | 1022.3 |
| 20260503235758 | 66 | 268 | 0.0 | 0.0 | 0.00 | 0.00 | 0.00 | 40 | 1022.0 |
| 20260503235256 | 66 | 268 | 0.0 | 0.0 | 0.00 | 0.00 | 0.00 | 39 | 1022.0 |
| 20260503234753 | 67 | 268 | 0.0 | 0.0 | 0.00 | 0.00 | 0.00 | 38 | 1021.9 |
| 20260503234251 | 67 | 268 | 0.0 | 0.0 | 0.00 | 0.00 | 0.00 | 40 | 1022.1 |
| 20260503233748 | 67 | 245 | 2.0 | 3.0 | 0.00 | 0.00 | 0.00 | 36 | 1022.1 |
| 20260503233244 | 67 | 268 | 0.0 | 0.0 | 0.00 | 0.00 | 0.00 | 38 | 1022.0 |
| 20260503232741 | 68 | 268 | 0.0 | 0.0 | 0.00 | 0.00 | 0.00 | 39 | 1021.9 |
| 20260503232238 | 68 | 268 | 0.0 | 0.0 | 0.00 | 0.00 | 0.00 | 37 | 1021.7 |
| 20260503231736 | 68 | 267 | 0.0 | 0.0 | 0.00 | 0.00 | 0.00 | 36 | 1022.0 |
| 20260503231233 | 68 | 252 | 0.0 | 2.0 | 0.00 | 0.00 | 0.00 | 33 | 1022.1 |
| 20260503230728 | 69 | 254 | 2.0 | 2.0 | 0.00 | 0.00 | 0.00 | 35 | 1022.0 |
| 20260503230226 | 69 | 267 | 0.0 | 0.0 | 0.00 | 0.00 | 0.00 | 34 | 1022.2 |
| 20260503225724 | 69 | 246 | 3.0 | 3.0 | 0.00 | 0.00 | 0.00 | 33 | 1022.0 |
| 20260503225224 | 69 | 262 | 0.0 | 0.0 | 0.00 | 0.00 | 0.00 | 34 | 1022.2 |
| 20260503224721 | 69 | 274 | 0.0 | 0.0 | 0.00 | 0.00 | 0.00 | 35 | 1022.1 |
| 20260503224219 | 69 | 262 | 2.0 | 3.0 | 0.00 | 0.00 | 0.00 | 34 | 1021.7 |
| 20260503223716 | 70 | 233 | 1.0 | 3.0 | 0.00 | 0.00 | 0.00 | 32 | 1021.9 |
| 20260503223213 | 70 | 166 | 3.0 | 3.0 | 0.00 | 0.00 | 0.00 | 31 | 1021.9 |
| 20260503222710 | 70 | 282 | 3.0 | 3.0 | 0.00 | 0.00 | 0.00 | 32 | 1022.1 |
| 20260503222208 | 70 | 260 | 2.0 | 3.0 | 0.00 | 0.00 | 0.00 | 31 | 1022.0 |
| 20260503221706 | 70 | 220 | 1.0 | 3.0 | 0.00 | 0.00 | 0.00 | 35 | 1022.2 |
| 20260503221203 | 70 | 272 | 0.0 | 0.0 | 0.00 | 0.00 | 0.00 | 32 | 1022.2 |
| 20260503220659 | 70 | 283 | 0.0 | 0.0 | 0.00 | 0.00 | 0.00 | 33 | 1022.1 |
| 20260503220156 | 70 | 245 | 5.0 | 7.0 | 0.00 | 0.00 | 0.00 | 31 | 1022.2 |
| 20260503215653 | 71 | 246 | 3.0 | 3.0 | 0.00 | 0.00 | 0.00 | 31 | 1022.2 |
| 20260503215150 | 70 | 203 | 5.0 | 7.0 | 0.00 | 0.00 | 0.00 | 33 | 1022.0 |
| 20260503214649 | 70 | 253 | 1.0 | 2.0 | 0.00 | 0.00 | 0.00 | 32 | 1022.1 |
| 20260503214144 | 71 | 242 | 5.0 | 5.0 | 0.00 | 0.00 | 0.00 | 32 | 1022.1 |
| 20260503213644 | 71 | 261 | 0.0 | 0.0 | 0.00 | 0.00 | 0.00 | 33 | 1022.2 |
| 20260503213140 | 70 | 199 | 0.0 | 2.0 | 0.00 | 0.00 | 0.00 | 36 | 1022.3 |
| 20260503212637 | 70 | 286 | 0.0 | 0.0 | 0.00 | 0.00 | 0.00 | 35 | 1022.3 |
| 20260503212135 | 70 | 300 | 0.0 | 0.0 | 0.00 | 0.00 | 0.00 | 34 | 1022.4 |
| 20260503211633 | 71 | 247 | 2.0 | 2.0 | 0.00 | 0.00 | 0.00 | 32 | 1022.6 |
| 20260503211127 | 71 | 240 | 0.0 | 2.0 | 0.00 | 0.00 | 0.00 | 36 | 1022.5 |
| 20260503210624 | 71 | 297 | 0.0 | 0.0 | 0.00 | 0.00 | 0.00 | 32 | 1022.4 |
| 20260503210121 | 71 | 188 | 0.0 | 2.0 | 0.00 | 0.00 | 0.00 | 32 | 1022.4 |
| 20260503205616 | 71 | 59 | 0.0 | 0.0 | 0.00 | 0.00 | 0.00 | 32 | 1022.4 |
| 20260503205113 | 71 | 271 | 2.0 | 5.0 | 0.00 | 0.00 | 0.00 | 32 | 1022.6 |
| 20260503204610 | 70 | 204 | 2.0 | 3.0 | 0.00 | 0.00 | 0.00 | 32 | 1022.7 |
| 20260503204107 | 71 | 306 | 0.0 | 0.0 | 0.00 | 0.00 | 0.00 | 34 | 1022.9 |
| 20260503203604 | 71 | 314 | 1.0 | 2.0 | 0.00 | 0.00 | 0.00 | 34 | 1022.7 |
| 20260503203101 | 70 | 239 | 0.0 | 0.0 | 0.00 | 0.00 | 0.00 | 35 | 1022.9 |
| 20260503202559 | 70 | 244 | 3.0 | 3.0 | 0.00 | 0.00 | 0.00 | 34 | 1022.7 |
| 20260503202057 | 71 | 201 | 0.0 | 0.0 | 0.00 | 0.00 | 0.00 | 32 | 1023.0 |
| 20260503201555 | 71 | 259 | 0.0 | 0.0 | 0.00 | 0.00 | 0.00 | 32 | 1023.0 |
| 20260503201052 | 70 | 229 | 0.0 | 0.0 | 0.00 | 0.00 | 0.00 | 33 | 1023.2 |
| 20260503200548 | 71 | 198 | 5.0 | 7.0 | 0.00 | 0.00 | 0.00 | 34 | 1023.2 |
| 20260503200044 | 70 | 261 | 0.0 | 0.0 | 0.00 | 0.00 | 0.00 | 36 | 1023.4 |
| 20260503195542 | 70 | 189 | 3.0 | 3.0 | 0.00 | 0.00 | 0.00 | 33 | 1023.2 |
| 20260503195038 | 70 | 243 | 4.0 | 5.0 | 0.00 | 0.00 | 0.00 | 33 | 1023.4 |
| 20260503194535 | 70 | 184 | 3.0 | 3.0 | 0.00 | 0.00 | 0.00 | 31 | 1023.3 |
| 20260503194030 | 69 | 294 | 0.0 | 0.0 | 0.00 | 0.00 | 0.00 | 34 | 1023.5 |
| 20260503193527 | 69 | 318 | 0.0 | 0.0 | 0.00 | 0.00 | 0.00 | 34 | 1023.7 |
| 20260503193022 | 70 | 321 | 2.0 | 2.0 | 0.00 | 0.00 | 0.00 | 35 | 1023.9 |
| 20260503192518 | 69 | 303 | 1.0 | 2.0 | 0.00 | 0.00 | 0.00 | 36 | 1024.0 |
| 20260503192014 | 69 | 241 | 0.0 | 0.0 | 0.00 | 0.00 | 0.00 | 35 | 1023.9 |
| 20260503191512 | 69 | 339 | 0.0 | 0.0 | 0.00 | 0.00 | 0.00 | 35 | 1023.9 |
| 20260503191008 | 69 | 327 | 3.0 | 3.0 | 0.00 | 0.00 | 0.00 | 37 | 1023.8 |
| 20260503190505 | 69 | 312 | 0.0 | 0.0 | 0.00 | 0.00 | 0.00 | 37 | 1024.3 |
| 20260503190003 | 69 | 304 | 3.0 | 3.0 | 0.00 | 0.00 | 0.00 | 38 | 1024.1 |
| 20260503185458 | 68 | 240 | 0.0 | 0.0 | 0.00 | 0.00 | 0.00 | 37 | 1024.4 |
| 20260503184958 | 68 | 316 | 0.0 | 2.0 | 0.00 | 0.00 | 0.00 | 35 | 1024.3 |
| 20260503184454 | 68 | 305 | 0.0 | 0.0 | 0.00 | 0.00 | 0.00 | 35 | 1024.2 |
| 20260503183951 | 68 | 286 | 0.0 | 0.0 | 0.00 | 0.00 | 0.00 | 36 | 1024.6 |
| 20260503183448 | 68 | 283 | 0.0 | 0.0 | 0.00 | 0.00 | 0.00 | 35 | 1024.7 |
| 20260503182944 | 68 | 279 | 0.0 | 0.0 | 0.00 | 0.00 | 0.00 | 37 | 1024.6 |
| 20260503182443 | 68 | 247 | 0.0 | 2.0 | 0.00 | 0.00 | 0.00 | 36 | 1025.0 |
| 20260503181941 | 68 | 248 | 3.0 | 5.0 | 0.00 | 0.00 | 0.00 | 34 | 1025.0 |
| 20260503181438 | 68 | 291 | 0.0 | 0.0 | 0.00 | 0.00 | 0.00 | 35 | 1024.8 |
| 20260503180933 | 68 | 194 | 0.0 | 0.0 | 0.00 | 0.00 | 0.00 | 32 | 1025.0 |
| 20260503180432 | 68 | 294 | 1.0 | 3.0 | 0.00 | 0.00 | 0.00 | 39 | 1025.1 |
| 20260503175928 | 68 | 245 | 3.0 | 3.0 | 0.00 | 0.00 | 0.00 | 36 | 1024.9 |
| 20260503175427 | 68 | 248 | 0.0 | 0.0 | 0.00 | 0.00 | 0.00 | 37 | 1025.1 |
| 20260503174922 | 68 | 210 | 1.0 | 2.0 | 0.00 | 0.00 | 0.00 | 36 | 1025.0 |
| 20260503174421 | 67 | 303 | 1.0 | 2.0 | 0.00 | 0.00 | 0.00 | 38 | 1025.1 |
| 20260503173920 | 67 | 304 | 0.0 | 2.0 | 0.00 | 0.00 | 0.00 | 38 | 1025.2 |
| 20260503173417 | 67 | 143 | 3.0 | 3.0 | 0.00 | 0.00 | 0.00 | 34 | 1025.2 |
| 20260503172914 | 68 | 316 | 1.0 | 2.0 | 0.00 | 0.00 | 0.00 | 34 | 1025.3 |
| 20260503172411 | 67 | 275 | 1.0 | 2.0 | 0.00 | 0.00 | 0.00 | 40 | 1025.3 |
| 20260503171907 | 68 | 233 | 0.0 | 0.0 | 0.00 | 0.00 | 0.00 | 38 | 1025.2 |
| 20260503171404 | 67 | 276 | 0.0 | 0.0 | 0.00 | 0.00 | 0.00 | 36 | 1025.4 |
| 20260503170902 | 66 | 250 | 3.0 | 3.0 | 0.00 | 0.00 | 0.00 | 38 | 1025.5 |
| 20260503170358 | 67 | 157 | 3.0 | 5.0 | 0.00 | 0.00 | 0.00 | 37 | 1025.2 |
| 20260503150750 | 60 | 263 | 3.0 | 3.0 | 0.00 | 0.00 | 0.00 | 49 | 1026.0 |
| 20260503150246 | 60 | 266 | 0.0 | 0.0 | 0.00 | 0.00 | 0.00 | 52 | 1026.2 |
| 20260503140211 | 56 | 298 | 0.0 | 0.0 | 0.00 | 0.00 | 0.00 | 66 | 1025.6 |
| 20260503131140 | 52 | 296 | 0.0 | 0.0 | 0.00 | 0.00 | 0.00 | 74 | 1025.8 |
| 20260503130638 | 52 | 308 | 0.0 | 0.0 | 0.00 | 0.00 | 0.00 | 73 | 1025.6 |
| 20260503130135 | 52 | 308 | 0.0 | 0.0 | 0.00 | 0.00 | 0.00 | 73 | 1025.4 |
| 20260503110527 | 44 | 306 | 0.0 | 0.0 | 0.00 | 0.00 | 0.00 | 82 | 1024.8 |
| 20260503090414 | 46 | 307 | 0.0 | 0.0 | 0.00 | 0.00 | 0.00 | 80 | 1024.2 |
| 20260503081341 | 46 | 307 | 0.0 | 0.0 | 0.00 | 0.00 | 0.00 | 78 | 1023.6 |
| 20260503080838 | 46 | 307 | 0.0 | 0.0 | 0.00 | 0.00 | 0.00 | 78 | 1023.4 |
| 20260503080335 | 46 | 307 | 0.0 | 0.0 | 0.00 | 0.00 | 0.00 | 77 | 1023.7 |
| 20260503072811 | 49 | 307 | 0.0 | 0.0 | 0.00 | 0.00 | 0.00 | 72 | 1023.1 |
| 20260503072308 | 49 | 307 | 0.0 | 0.0 | 0.00 | 0.00 | 0.00 | 72 | 1023.3 |
| 20260503071804 | 50 | 307 | 0.0 | 0.0 | 0.00 | 0.00 | 0.00 | 71 | 1023.3 |
| 20260503071302 | 50 | 307 | 0.0 | 0.0 | 0.00 | 0.00 | 0.00 | 70 | 1023.1 |
| 20260503070758 | 49 | 307 | 0.0 | 0.0 | 0.00 | 0.00 | 0.00 | 70 | 1023.0 |
| 20260503070256 | 50 | 307 | 0.0 | 0.0 | 0.00 | 0.00 | 0.00 | 70 | 1023.2 |